, LA

(GMT )
High Island 179A

Weather History for KXIH - November, 2012

Change the Weather History Date:

Wednesday, November 14, 2012

  Actual Average Record
Temperature  
Mean Temperature 58 °F -  
Max Temperature 62 °F - - ()
Min Temperature 55 °F - - ()
Degree Days  
Heating Degree Days 6    
Growing Degree Days 8 (Base 50)    
Moisture  
Dew Point 39 °F    
Average Humidity 49    
Maximum Humidity 67    
Minimum Humidity 34    
Precipitation  
Precipitation 0.00 in - - ()
Sea Level Pressure  
Sea Level Pressure 30.30 in    
Wind  
Wind Speed 15 mph (NE)    
Max Wind Speed 22 mph    
Max Gust Speed 24 mph    
Visibility 10 miles    
Events      
Averages and records for this station are not official NWS values.
T = Trace of Precipitation, MM = Missing Value Source: NWS Daily Summary

Daily Weather History Graph

Daily Weather History Graph

Search for Another Location

Airport or City:

Trip Planner

Search our weather history database for the weather conditions in past years. The results will help you decide how hot, cold, wet, or windy it might be!

Date:

Astronomy

Nov. 14, 2012 Rise Set
Actual Time 6:41 AM CST 5:23 PM CST
Civil Twilight 6:16 AM CST 5:48 PM CST
Nautical Twilight 5:47 AM CST 6:17 PM CST
Astronomical Twilight 5:19 AM CST 6:45 PM CST
Moon 7:27 AM CST (11/14) 6:17 PM CST (11/14)
Length of Visible Light 11h 32m
Length of Day
10h 42m
New Moon, 1% of the Moon is Illuminated
Nov 14
New Moon
Nov 20
First Quarter
Nov 28
Full
Dec 6
Last Quarter
Dec 13
New

Hourly Weather History & Observations

Time (CST) Temp. Dew Point Humidity Pressure Visibility Wind Dir Wind Speed Gust Speed Precip Events Conditions
12:15 AM 57.2 °F 37.4 °F 48% 30.31 in 10.0 mi ENE 20.7 mph - N/A   Partly Cloudy
12:35 AM 57.2 °F 35.6 °F 44% 30.30 in 10.0 mi ENE 19.6 mph - N/A   Partly Cloudy
12:55 AM 57.2 °F 37.4 °F 48% 30.31 in 10.0 mi NE 19.6 mph - N/A   Clear
1:15 AM 57.2 °F 39.2 °F 51% 30.31 in 10.0 mi NE 18.4 mph 24.2 mph N/A   Clear
1:35 AM 57.2 °F 37.4 °F 48% 30.31 in 10.0 mi NE 16.1 mph 23.0 mph N/A   Partly Cloudy
1:55 AM 57.2 °F 39.2 °F 51% 30.31 in 10.0 mi NE 20.7 mph - N/A   Mostly Cloudy
2:15 AM 57.2 °F 41.0 °F 55% 30.30 in 10.0 mi NE 19.6 mph - N/A   Mostly Cloudy
2:35 AM 57.2 °F 41.0 °F 55% 30.30 in 10.0 mi NE 20.7 mph - N/A   Mostly Cloudy
2:55 AM 55.4 °F 39.2 °F 54% 30.30 in 10.0 mi NE 20.7 mph - N/A   Mostly Cloudy
3:15 AM 55.4 °F 41.0 °F 58% 30.30 in 10.0 mi NE 20.7 mph - N/A   Mostly Cloudy
3:35 AM 55.4 °F 41.0 °F 58% 30.31 in 10.0 mi NE 17.3 mph 23.0 mph N/A   Mostly Cloudy
3:55 AM 55.4 °F 41.0 °F 58% 30.31 in 10.0 mi NE 18.4 mph - N/A   Overcast
4:15 AM 55.4 °F 39.2 °F 54% 30.30 in 10.0 mi NE 17.3 mph - N/A   Mostly Cloudy
4:35 AM 55.4 °F 39.2 °F 54% 30.31 in 10.0 mi NE 16.1 mph - N/A   Scattered Clouds
4:55 AM 55.4 °F 39.2 °F 54% 30.30 in 10.0 mi ENE 18.4 mph - N/A   Mostly Cloudy
5:15 AM 55.4 °F 41.0 °F 58% 30.29 in 10.0 mi ENE 21.9 mph - N/A   Scattered Clouds
5:35 AM 55.4 °F 39.2 °F 54% 30.30 in 10.0 mi ENE 16.1 mph - N/A   Mostly Cloudy
5:55 AM 55.4 °F 39.2 °F 54% 30.31 in 10.0 mi NE 17.3 mph 23.0 mph N/A   Scattered Clouds
6:15 AM 55.4 °F 41.0 °F 58% 30.32 in 10.0 mi NE 16.1 mph - N/A   Mostly Cloudy
6:35 AM 55.4 °F 41.0 °F 58% 30.32 in 10.0 mi ENE 13.8 mph - N/A   Overcast
6:55 AM 55.4 °F 41.0 °F 58% 30.32 in 10.0 mi ENE 13.8 mph - N/A   Overcast
7:15 AM 55.4 °F 41.0 °F 58% 30.32 in 10.0 mi ENE 13.8 mph - N/A   Overcast
7:35 AM 55.4 °F 39.2 °F 54% 30.33 in 10.0 mi ENE 13.8 mph - N/A   Overcast
8:15 AM 57.2 °F 39.2 °F 51% 30.33 in 10.0 mi ENE 13.8 mph - N/A   Overcast
8:35 AM 55.4 °F 41.0 °F 58% 30.34 in 10.0 mi NE 17.3 mph - N/A   Overcast
8:55 AM 55.4 °F 42.8 °F 63% 30.35 in 10.0 mi NE 18.4 mph - N/A   Overcast
9:15 AM 55.4 °F 42.8 °F 63% 30.35 in 10.0 mi NE 17.3 mph - N/A   Overcast
9:35 AM 55.4 °F 44.6 °F 67% 30.35 in 10.0 mi NE 18.4 mph - N/A   Overcast
9:55 AM 55.4 °F 42.8 °F 63% 30.37 in 10.0 mi NE 15.0 mph 21.9 mph N/A   Overcast
10:15 AM 55.4 °F 42.8 °F 63% 30.37 in 10.0 mi NE 16.1 mph - N/A   Overcast
10:35 AM 55.4 °F 42.8 °F 63% 30.36 in 10.0 mi NE 15.0 mph - N/A   Overcast
10:55 AM 55.4 °F 41.0 °F 58% 30.36 in 10.0 mi NE 13.8 mph - N/A   Overcast
11:15 AM 55.4 °F 41.0 °F 58% 30.35 in 10.0 mi NE 13.8 mph - N/A   Overcast
11:35 AM 55.4 °F 39.2 °F 54% 30.35 in 10.0 mi NE 13.8 mph - N/A   Overcast
11:55 AM 55.4 °F 37.4 °F 51% 30.34 in 10.0 mi NNE 10.4 mph - N/A   Overcast
12:15 PM 55.4 °F 37.4 °F 51% 30.33 in 10.0 mi NE 10.4 mph - N/A   Overcast
12:35 PM 55.4 °F 35.6 °F 47% 30.32 in 10.0 mi NE 6.9 mph 13.8 mph N/A   Overcast
12:55 PM 55.4 °F 35.6 °F 47% 30.31 in 10.0 mi NNE 8.1 mph 15.0 mph N/A   Overcast
1:15 PM 57.2 °F 37.4 °F 48% 30.31 in 10.0 mi NNE 10.4 mph - N/A   Overcast
1:35 PM 57.2 °F 37.4 °F 48% 30.30 in 10.0 mi NE 6.9 mph - N/A   Scattered Clouds
1:55 PM 57.2 °F 37.4 °F 48% 30.29 in 10.0 mi NNE 8.1 mph - N/A   Clear
2:15 PM 57.2 °F 37.4 °F 48% 30.28 in 10.0 mi NNE 6.9 mph - N/A   Clear
2:35 PM 59.0 °F 37.4 °F 45% 30.28 in 10.0 mi North 5.8 mph - N/A   Clear
2:55 PM 59.0 °F 37.4 °F 45% 30.28 in 10.0 mi NNE 4.6 mph - N/A   Clear
3:15 PM 60.8 °F 37.4 °F 42% 30.27 in 10.0 mi Variable 4.6 mph - N/A   Clear
3:35 PM 60.8 °F 37.4 °F 42% 30.27 in 10.0 mi NNE 4.6 mph - N/A   Clear
3:55 PM 60.8 °F 39.2 °F 45% 30.26 in 10.0 mi NW 5.8 mph - N/A   Clear
4:15 PM 60.8 °F 37.4 °F 42% 30.26 in 10.0 mi North 4.6 mph - N/A   Clear
4:35 PM 60.8 °F 37.4 °F 42% 30.26 in 10.0 mi NNE 3.5 mph - N/A   Clear
4:55 PM 60.8 °F 32.0 °F 34% 30.26 in 10.0 mi NNE 8.1 mph - N/A   Clear
5:15 PM 60.8 °F 33.8 °F 36% 30.26 in 10.0 mi NE 8.1 mph - N/A   Clear
5:35 PM 60.8 °F 33.8 °F 36% 30.26 in 10.0 mi NNE 6.9 mph - N/A   Clear
5:55 PM 60.8 °F 33.8 °F 36% 30.26 in 10.0 mi NE 5.8 mph - N/A   Clear
6:15 PM 60.8 °F 35.6 °F 39% 30.26 in 10.0 mi NE 6.9 mph - N/A   Clear
6:35 PM 60.8 °F 35.6 °F 39% 30.27 in 10.0 mi NNE 5.8 mph - N/A   Clear
6:55 PM 60.8 °F 37.4 °F 42% 30.27 in 10.0 mi NE 5.8 mph - N/A   Clear
7:15 PM 60.8 °F 35.6 °F 39% 30.27 in 10.0 mi NNE 6.9 mph - N/A   Clear
7:35 PM 60.8 °F 37.4 °F 42% 30.28 in 10.0 mi ENE 5.8 mph - N/A   Clear
7:55 PM 60.8 °F 37.4 °F 42% 30.28 in 10.0 mi ENE 6.9 mph - N/A   Clear
8:15 PM 60.8 °F 37.4 °F 42% 30.28 in 10.0 mi ENE 8.1 mph - N/A   Clear
8:35 PM 62.6 °F 37.4 °F 39% 30.28 in 10.0 mi NE 6.9 mph - N/A   Clear
8:55 PM 62.6 °F 39.2 °F 42% 30.29 in 10.0 mi NE 8.1 mph - N/A   Clear
9:15 PM 62.6 °F 37.4 °F 39% 30.29 in 10.0 mi NE 9.2 mph - N/A   Mostly Cloudy
9:35 PM 62.6 °F 35.6 °F 37% 30.29 in 10.0 mi ENE 8.1 mph - N/A   Mostly Cloudy
9:55 PM 62.6 °F 35.6 °F 37% 30.28 in 10.0 mi NE 15.0 mph - N/A   Partly Cloudy
10:15 PM 60.8 °F 39.2 °F 45% 30.28 in 10.0 mi ENE 15.0 mph - N/A   Clear
10:35 PM 60.8 °F 37.4 °F 42% 30.28 in 10.0 mi NE 12.7 mph - N/A   Clear
10:55 PM 62.6 °F 39.2 °F 42% 30.28 in 10.0 mi ENE 13.8 mph - N/A   Clear
11:15 PM 62.6 °F 41.0 °F 45% 30.27 in 10.0 mi ENE 12.7 mph - N/A   Clear
11:35 PM 60.8 °F 39.2 °F 45% 30.27 in 10.0 mi ENE 13.8 mph - N/A   Clear
11:55 PM 60.8 °F 41.0 °F 48% 30.26 in 10.0 mi ENE 13.8 mph - N/A   Partly Cloudy